N0MR Weather Reports


time (UTC)temp
C
wind
direction
speed
KPH
gust
KPH
rain 1hr
cm
rain 24hr
cm
rain mn
cm
humidity
%
barometer
mb
20260510050207 3 331 1.6 11.3 0.00 0.00 0.00 60 1013.4
20260510015208 6 322 8.0 19.3 0.00 0.00 0.00 45 1010.9
20260510014209 6 322 8.0 19.3 0.00 0.00 0.00 45 1010.9
20260510013209 6 322 8.0 19.3 0.00 0.00 0.00 45 1010.9
20260510012208 6 322 8.0 19.3 0.00 0.00 0.00 45 1010.9
20260510011208 6 322 8.0 19.3 0.00 0.00 0.00 45 1010.9
20260510010208 6 322 8.0 19.3 0.00 0.00 0.00 45 1010.9
20260510005209 6 322 8.0 19.3 0.00 0.00 0.00 45 1010.9
20260510004209 6 322 8.0 19.3 0.00 0.00 0.00 45 1010.9
20260510003208 6 322 8.0 19.3 0.00 0.00 0.00 45 1010.9
20260510002209 7 48 1.6 14.5 0.00 0.00 0.00 44 1010.7
20260510001210 7 38 1.6 12.9 0.00 0.00 0.00 43 1010.5
20260510000211 7 38 1.6 12.9 0.00 0.00 0.00 43 1010.5
20260509235210 7 313 3.2 29.0 0.00 0.00 0.00 43 1010.2
20260509234209 7 313 3.2 29.0 0.00 0.00 0.00 43 1010.2
20260509233209 8 15 12.9 20.9 0.00 0.00 0.00 39 1009.8
20260509232209 8 15 12.9 20.9 0.00 0.00 0.00 39 1009.8
20260509231209 8 40 1.6 20.9 0.00 0.00 0.00 43 1009.5
20260509230209 8 40 1.6 20.9 0.00 0.00 0.00 43 1009.5
20260509225210 8 5 8.0 19.3 0.00 0.00 0.00 43 1009.4
20260509224209 8 5 8.0 19.3 0.00 0.00 0.00 43 1009.4
20260509223209 8 311 9.7 16.1 0.00 0.00 0.00 44 1009.2
20260509222210 8 311 9.7 16.1 0.00 0.00 0.00 44 1009.2
20260509221209 8 113 1.6 16.1 0.00 0.00 0.00 42 1009.0
20260509220210 8 113 1.6 16.1 0.00 0.00 0.00 42 1009.0
20260509215210 9 16 6.4 20.9 0.00 0.00 0.00 40 1008.9
20260509214209 9 16 6.4 20.9 0.00 0.00 0.00 40 1008.9
20260509213209 9 197 8.0 16.1 0.00 0.00 0.00 40 1008.4
20260509212210 9 197 8.0 16.1 0.00 0.00 0.00 40 1008.4
20260509211210 9 331 6.4 16.1 0.00 0.00 0.00 39 1008.3
20260509210210 8 325 6.4 12.9 0.00 0.00 0.00 41 1008.4
20260509205210 8 325 6.4 12.9 0.00 0.00 0.00 41 1008.4
20260509204211 8 13 8.0 17.7 0.00 0.00 0.00 42 1008.1
20260509203211 8 13 8.0 17.7 0.00 0.00 0.00 42 1008.1
20260509202211 8 269 3.2 19.3 0.00 0.00 0.00 42 1008.1
20260509201210 8 269 3.2 19.3 0.00 0.00 0.00 42 1008.1
20260509200211 8 355 9.7 17.7 0.00 0.00 0.00 42 1007.9
20260509195210 8 355 9.7 17.7 0.00 0.00 0.00 42 1007.9
20260509194210 8 80 8.0 16.1 0.00 0.00 0.00 46 1007.6
20260509193210 8 80 8.0 16.1 0.00 0.00 0.00 46 1007.6
20260509192213 8 53 1.6 24.1 0.00 0.00 0.00 40 1007.5
20260509191210 8 53 1.6 24.1 0.00 0.00 0.00 40 1007.5
20260509190211 8 11 9.7 17.7 0.00 0.00 0.00 41 1007.2
20260509185210 8 11 9.7 17.7 0.00 0.00 0.00 41 1007.2
20260509182212 7 11 9.7 16.1 0.00 0.00 0.00 42 1007.0
20260509181212 7 11 9.7 16.1 0.00 0.00 0.00 42 1007.0
20260509180211 7 330 4.8 22.5 0.00 0.00 0.00 41 1006.8
20260509175211 8 210 8.0 25.7 0.00 0.00 0.00 41 1006.5
20260509174211 8 210 8.0 25.7 0.00 0.00 0.00 41 1006.5
20260509173212 7 134 4.8 22.5 0.00 0.00 0.00 43 1006.4
20260509172212 7 134 4.8 22.5 0.00 0.00 0.00 43 1006.4
20260509171212 7 21 6.4 24.1 0.00 0.00 0.00 43 1006.1
20260509170212 7 21 6.4 24.1 0.00 0.00 0.00 43 1006.1
20260509165212 8 96 9.7 19.3 0.00 0.00 0.00 42 1005.6
20260509164212 8 96 9.7 19.3 0.00 0.00 0.00 42 1005.6
20260509163212 8 342 14.5 32.2 0.00 0.00 0.00 43 1005.3
20260509162212 8 342 14.5 32.2 0.00 0.00 0.00 43 1005.3
20260509161211 8 59 11.3 32.2 0.00 0.00 0.00 44 1004.8
20260509160212 8 59 11.3 32.2 0.00 0.00 0.00 44 1004.8
20260509155211 7 36 3.2 20.9 0.00 0.00 0.00 46 1004.5
20260509154211 7 36 3.2 20.9 0.00 0.00 0.00 46 1004.5
20260509153211 7 294 11.3 24.1 0.00 0.00 0.00 47 1004.3
20260509152212 7 294 11.3 24.1 0.00 0.00 0.00 47 1004.3
20260509151211 6 351 3.2 19.3 0.00 0.00 0.00 50 1004.1
20260509150211 6 351 3.2 19.3 0.00 0.00 0.00 50 1004.1
20260509145213 7 319 3.2 22.5 0.00 0.00 0.00 50 1003.8
20260509144213 7 332 8.0 24.1 0.00 0.00 0.00 50 1003.3
20260509143212 7 332 8.0 24.1 0.00 0.00 0.00 50 1003.3
20260509142213 6 67 3.2 25.7 0.00 0.00 0.00 52 1003.2
20260509141212 6 67 3.2 25.7 0.00 0.00 0.00 52 1003.2
20260509140212 6 34 19.3 17.7 0.00 0.00 0.00 52 1002.8
20260509134213 5 53 4.8 22.5 0.00 0.00 0.00 51 1002.7
20260509133213 5 53 4.8 22.5 0.00 0.00 0.00 51 1002.7
20260509132212 5 54 6.4 19.3 0.00 0.00 0.00 51 1002.5
20260509131212 5 54 6.4 19.3 0.00 0.00 0.00 51 1002.5
20260509130213 5 323 3.2 19.3 0.00 0.00 0.00 52 1002.2
20260509125213 5 323 3.2 19.3 0.00 0.00 0.00 52 1002.2
20260509124213 4 350 12.9 12.9 0.00 0.00 0.00 52 1002.0
20260509123213 4 350 12.9 12.9 0.00 0.00 0.00 52 1002.0
20260509122213 4 210 1.6 16.1 0.00 0.00 0.00 51 1002.0
20260509121213 4 210 1.6 16.1 0.00 0.00 0.00 51 1002.0
20260509120213 4 221 3.2 11.3 0.00 0.00 0.00 51 1001.9
20260509115214 4 221 3.2 11.3 0.00 0.00 0.00 51 1001.9
20260509114213 3 238 3.2 11.3 0.00 0.00 0.00 50 1001.7
20260509113214 3 218 0.0 9.7 0.00 0.00 0.00 51 1001.6
20260509112213 3 218 0.0 9.7 0.00 0.00 0.00 51 1001.6
20260509111214 3 34 1.6 8.0 0.00 0.00 0.00 50 1001.3
20260509110214 3 34 1.6 8.0 0.00 0.00 0.00 50 1001.3
20260509105214 3 312 3.2 8.0 0.00 0.00 0.00 49 1001.2
20260509104214 3 312 3.2 8.0 0.00 0.00 0.00 49 1001.2
20260509103213 4 255 1.6 8.0 0.00 0.00 0.00 49 1001.1
20260509102214 4 255 1.6 8.0 0.00 0.00 0.00 49 1001.1
20260509101214 4 293 1.6 6.4 0.00 0.00 0.00 49 1001.1
20260509100214 4 293 1.6 6.4 0.00 0.00 0.00 49 1001.1
20260509095213 4 242 1.6 6.4 0.00 0.00 0.00 48 1001.0
20260509094214 4 242 1.6 6.4 0.00 0.00 0.00 48 1001.0
20260509093213 4 317 1.6 6.4 0.00 0.00 0.00 49 1000.9
20260509092213 4 317 1.6 6.4 0.00 0.00 0.00 49 1000.9
20260509091213 5 300 0.0 3.2 0.00 0.00 0.00 46 1000.8
20260509090213 5 300 0.0 3.2 0.00 0.00 0.00 46 1000.8
20260509085214 5 335 0.0 11.3 0.00 0.00 0.00 47 1000.7
20260509084214 5 335 0.0 11.3 0.00 0.00 0.00 47 1000.7
20260509083215 5 315 0.0 3.2 0.00 0.00 0.00 49 1000.7
20260509082214 4 289 1.6 3.2 0.00 0.00 0.00 49 1000.6
20260509081215 4 289 1.6 3.2 0.00 0.00 0.00 49 1000.6
20260509080215 5 269 1.6 3.2 0.00 0.00 0.00 48 1000.4
20260509075214 5 269 1.6 3.2 0.00 0.00 0.00 48 1000.4
20260509074214 5 292 0.0 3.2 0.00 0.00 0.00 47 1000.5
20260509073215 5 292 0.0 3.2 0.00 0.00 0.00 47 1000.5
20260509072215 6 292 0.0 3.2 0.00 0.00 0.00 46 1000.5
20260509071215 6 292 0.0 3.2 0.00 0.00 0.00 46 1000.5
20260509070215 6 329 0.0 6.4 0.00 0.00 0.00 45 1000.8
20260509065214 6 329 0.0 6.4 0.00 0.00 0.00 45 1000.8
20260509064215 7 336 0.0 3.2 0.00 0.00 0.00 46 1001.2
20260509063214 7 336 0.0 3.2 0.00 0.00 0.00 46 1001.2
20260509062216 7 313 0.0 6.4 0.00 0.00 0.00 45 1001.1
20260509061216 7 313 0.0 6.4 0.00 0.00 0.00 45 1001.1
20260509060216 7 319 1.6 3.2 0.00 0.00 0.00 46 1000.9
20260509055216 7 319 1.6 3.2 0.00 0.00 0.00 46 1000.9
20260509054216 7 209 0.0 3.2 0.00 0.00 0.00 48 1001.1
20260509053216 7 209 0.0 3.2 0.00 0.00 0.00 48 1001.1
20260509052216 7 314 0.0 3.2 0.00 0.00 0.00 48 1000.9
20260509051216 7 314 0.0 1.6 0.00 0.00 0.00 47 1001.1